1322870432653,21.5935
1322870492653,21.6415
1322870552653,21.6572
1322870612653,21.6480
1322870672653,21.6204
1322870732653,21.6049
1322870792653,21.6333
1322870852653,21.6120
1322870912653,21.6185
1322870972653,21.5374
1322871032653,21.6079
1322871092653,21.5907
1322871152653,21.6135
1322871212653,21.6633
1322871272653,21.6168
1322871332653,21.6684
1322871392653,21.6117
1322871452653,21.7045
1322871512653,21.6290
1322871572653,21.6582
1322871632653,21.6258
1322871692653,21.6410
1322871752653,21.6858
1322871812653,21.6400
1322871872653,21.6444
1322871932653,21.6662
1322871992653,21.5976
1322872052653,21.5221
1322872112653,21.5996
1322872172653,21.5593
1322872232653,21.5768
1322872292653,21.6242
1322872352653,21.5258
1322872412653,21.5745
1322872472653,21.5562
1322872532653,21.5858
1322872592653,21.6078
1322872652653,21.5449
1322872712653,21.5699
1322872772653,21.6164
1322872832653,21.6095
1322872892653,21.5800
1322872952653,21.6343
1322873012653,21.6830
1322873072653,21.6403
1322873132653,21.6386
1322873192653,21.5717
1322873252653,21.5964
1322873312653,21.5919
1322873372653,21.5711
1322873432653,21.6153
1322873492653,21.6175
1322873552653,21.6398
1322873612653,21.6173
1322873672653,21.5760
1322873732653,21.5998
1322873792653,21.5921
1322873852653,21.6036
1322873912653,21.5771
1322873972653,21.5053
1322874032663,21.6021
1322874092663,21.6206
1322874152663,21.5271
1322874212663,21.6877
1322874272663,21.6096
1322874332663,21.6261
1322874392663,21.5917
1322874452663,21.6046
1322874512663,21.6100
1322874572663,21.6014
1322874632663,21.6527
1322874692663,21.5922
1322874752663,21.6363
1322874812663,21.6629
1322874872663,21.6386
1322874932663,21.6029
1322874992663,21.5848
1322875052663,21.6417
1322875112663,21.6310
1322875172663,21.6180
1322875232663,21.5830
1322875292663,21.6063
1322875352663,21.5817
1322875412663,21.5841
1322875472663,21.5899
1322875532663,21.6009
1322875592663,21.5507
1322875652663,21.5536
1322875712663,21.5813
1322875772663,21.5498
1322875832663,21.5467
1322875892663,21.5947
1322875952663,21.6304
1322876012663,21.5861
1322876072663,21.5624
1322876132663,21.6255
1322876192663,21.6270
1322876252663,21.6822
1322876312663,21.6785
1322876372663,21.7524
1322876432663,21.7391
1322876492663,21.7536
1322876552663,21.7431
1322876612663,21.7291
1322876672663,21.6953
1322876732663,21.7049
1322876792663,21.7390
1322876852663,21.6631
1322876912663,21.6737
1322876972663,21.6469
1322877032663,21.6813
1322877092663,21.6095
1322877152663,21.6473
1322877212663,21.6795
1322877272663,21.6219
1322877332663,21.6296
1322877392663,21.5996
1322877452663,21.6196
1322877512663,21.5322
1322877572663,21.6215
1322877632673,21.5517
1322877692673,21.5702
1322877752673,21.6000
1322877812673,21.5909
1322877872673,21.5784
1322877932673,21.4982
1322877992673,21.5553
1322878052673,21.5563
1322878112673,21.5978
1322878172673,21.5238
1322878232673,21.5321
1322878292673,21.6001
1322878352673,21.5840
1322878412673,21.6512
1322878472673,21.6039
1322878532673,21.6087
1322878592673,21.5716
1322878652673,21.5941
1322878712673,21.5740
1322878772673,21.5956
1322878832673,21.5799
1322878892673,21.6423
1322878952673,21.6033
1322879012673,21.5976
1322879072673,21.5413
1322879132673,21.5253
1322879192673,21.6246
1322879252673,21.6075
1322879312673,21.6050
1322879372673,21.5860
1322879432673,21.6124
1322879492673,21.5732
1322879552673,21.5811
1322879612673,21.5468
1322879672673,21.6088
1322879732673,21.5922
1322879792673,21.5837
1322879852673,21.6430
1322879912673,21.6067
1322879972673,21.6498
1322880032673,21.6363
1322880092673,21.6085
1322880152673,21.5911
1322880212673,21.6720
1322880272673,21.5931
1322880332673,21.6264
1322880392673,21.5567
1322880452673,21.6105
1322880512673,21.5607
1322880572673,21.5773
1322880632673,21.6498
1322880692673,21.6526
1322880752673,21.5898
1322880812673,21.6192
1322880872673,21.6880
1322880932673,21.5583
1322880992673,21.5637
1322881052673,21.6001
1322881112673,21.6025
1322881172673,21.6125
1322881232683,21.6127
1322881292683,21.6075
1322881352683,21.6042
1322881412683,21.6207
1322881472683,21.6619
1322881532683,21.5785
1322881592683,21.6113
1322881652683,21.6051
1322881712683,21.5566
1322881772683,21.6138
1322881832683,21.6051
1322881892683,21.6283
1322881952683,21.6631
1322882012683,21.6241
1322882072683,21.5426
1322882132683,21.5439
1322882192683,21.6642
1322882252683,21.5558
1322882312683,21.5769
1322882372683,21.5412
1322882432683,21.5928
1322882492683,21.5812
1322882552683,21.6132
1322882612683,21.5253
1322882672683,21.5518
1322882732683,21.4739
1322882792683,21.5549
1322882852683,21.5896
1322882912683,21.5710
1322882972683,21.6844
1322883032683,21.6276
1322883092683,21.6281
1322883152683,21.6221
1322883212683,21.7009
1322883272683,21.6532
1322883332683,21.6265
1322883392683,21.5944
1322883452683,21.6504
1322883512683,21.6657
1322883572683,21.6596
1322883632683,21.6841
1322883692683,21.6939
1322883752683,21.6438
1322883812683,21.6580
1322883872683,21.6953
1322883932683,21.6546
1322883992683,21.6884
1322884052683,21.6719
1322884112683,21.6539
1322884172683,21.6511
1322884232683,21.5732
1322884292683,21.6450
1322884352683,21.6896
1322884412683,21.7122
1322884472683,21.8433
1322884532683,21.7033
1322884592683,21.8292
1322884652683,21.7414
1322884712683,21.7416
1322884772683,21.7354
1322884832693,21.7123
1322884892693,21.7489
1322884952693,21.7285
1322885012693,21.6723
1322885072693,21.7448
1322885132694,21.7695
1322885192694,21.7599
1322885252694,21.7145
1322885312694,21.7100
1322885372694,21.7479
1322885432694,21.7374
1322885492693,21.7156
1322885552693,21.7108
1322885612693,21.7668
1322885672693,21.7447
1322885732693,21.8104
1322885792693,21.6749
1322885852693,21.7393
1322885912693,21.8099
1322885972693,21.7558
1322886032693,21.7025
1322886092694,21.7375
1322886152693,21.6745
1322886212693,21.7478
1322886272693,21.7075
1322886332693,21.7819
1322886392693,21.7707
1322886452694,21.7012
1322886512694,21.7432
1322886572694,21.7215
1322886632694,21.7462
1322886692694,21.7437
1322886752694,21.7079
1322886812693,21.7115
1322886872693,21.7479
1322886932693,21.6784
1322886992693,21.6273
1322887052693,21.7099
1322887112693,21.7487
1322887172693,21.7265
1322887232693,21.7703
1322887292693,21.7340
1322887352693,21.7030
1322887412693,21.6767
1322887472693,21.7175
1322887532693,21.6629
1322887592693,21.7386
1322887652693,21.7051
1322887712693,21.7965
1322887772693,21.7465
1322887832694,21.7705
1322887892694,21.7610
1322887952694,21.7081
1322888012694,21.6969
1322888072694,21.7250
1322888132694,21.7091
1322888192693,21.6188
1322888252693,21.6568
1322888312693,21.6203
1322888372693,21.6212
1322888432704,21.6741
1322888492704,21.7112
1322888552704,21.6890
1322888612704,21.7597
1322888672704,21.6682
1322888732704,21.7394
1322888792704,21.7139
1322888852704,21.6884
1322888912704,21.7189
1322888972704,21.7072
1322889032704,21.6455
1322889092704,21.7041
1322889152704,21.6960
1322889212704,21.7494
1322889272704,21.6786
1322889332704,21.6298
1322889392704,21.6610
1322889452704,21.7130
1322889512704,21.6996
1322889572704,21.6673
1322889632704,21.6987
1322889692704,21.6358
1322889752704,21.6563
1322889812704,21.6200
1322889872704,21.6143
1322889932704,21.6349
1322889992704,21.6489
1322890052704,21.6060
1322890112704,21.6410
1322890172704,21.6611
1322890232704,21.6308
1322890292704,21.6634
1322890352704,21.7488
1322890412704,21.6363
1322890472704,21.7947
1322890532704,21.7350
1322890592704,21.6493
1322890652704,21.6778
1322890712704,21.6928
1322890772704,21.6721
1322890832704,21.6397
1322890892704,21.6727
1322890952704,21.6096
1322891012704,21.5735
1322891072704,21.6244
1322891132704,21.6325
1322891192704,21.6794
1322891252704,21.6705
1322891312704,21.6887
1322891372704,21.7726
1322891432704,21.7526
1322891492704,21.8131
1322891552704,21.7184
1322891612704,21.7825
1322891672704,21.7466
1322891732704,21.6999
1322891792704,21.6685
1322891852704,21.6867
1322891912704,21.7309
1322891972704,21.6627
1322892032714,21.7102
1322892092714,21.7343
1322892152714,21.7278
1322892212714,21.6522
1322892272714,21.7146
1322892332714,21.6670
1322892392714,21.6856
1322892452714,21.7123
1322892512714,21.6821
1322892572714,21.6816
1322892632714,21.6611
1322892692714,21.6858
1322892752714,21.7068
1322892812714,21.6759
1322892872714,21.7551
1322892932714,21.7335
1322892992714,21.7013
1322893052714,21.6890
1322893112714,21.6750
1322893172714,21.6956
1322893232714,21.7163
1322893292714,21.6845
1322893352714,21.6864
1322893412714,21.6579
1322893472714,21.6908
1322893532714,21.7197
1322893592714,21.6921
1322893652714,21.7281
1322893712714,21.7108
1322893772714,21.7387
1322893832714,21.6924
1322893892714,21.6776
1322893952714,21.6588
1322894012714,21.6767
1322894072714,21.7507
1322894132714,21.6951
1322894192714,21.7408
1322894252714,21.7297
1322894312714,21.8037
1322894372714,21.8039
1322894432714,21.7725
1322894492714,21.7928
1322894552714,21.7752
1322894612714,21.7715
1322894672714,21.7799
1322894732714,21.7434
1322894792714,21.7260
1322894852714,21.7399
1322894912714,21.7363
1322894972714,21.7206
1322895032714,21.6674
1322895092714,21.6532
1322895152714,21.6700
1322895212714,21.6590
1322895272714,21.6333
1322895332714,21.7193
1322895392714,21.6855
1322895452714,21.6592
1322895512714,21.6361
1322895572714,21.6937
1322895632725,21.7034
1322895692725,21.6121
1322895752725,21.6294
1322895812725,21.6358
1322895872725,21.5763
1322895932725,21.6257
1322895992725,21.6680
1322896052725,21.6358
1322896112725,21.6528
1322896172725,21.6601
1322896232725,21.6327
1322896292725,21.6626
1322896352725,21.6762
1322896412725,21.6578
1322896472725,21.6699
1322896532725,21.6528
1322896592725,21.6553
1322896652725,21.7021
1322896712725,21.6964
1322896772725,21.6688
1322896832725,21.6292
1322896892725,21.5787
1322896952725,21.6466
1322897012725,21.6482
1322897072725,21.6458
1322897132725,21.5422
1322897192725,21.5456
1322897252725,21.5982
1322897312725,21.5636
1322897372725,21.6010
1322897432725,21.5765
1322897492725,21.6380
1322897552725,21.5529
1322897612725,21.6817
1322897672725,21.6169
1322897732725,21.6954
1322897792725,21.6465
1322897852725,21.5979
1322897912725,21.6487
1322897972725,21.5879
1322898032725,21.6111
1322898092725,21.5964
1322898152725,21.6255
1322898212725,21.6805
1322898272725,21.6971
1322898332725,21.6559
1322898392725,21.6846
1322898452725,21.6457
1322898512725,21.6996
1322898572725,21.6418
1322898632725,21.6441
1322898692725,21.6554
1322898752725,21.6439
1322898812725,21.6065
1322898872725,21.6933
1322898932725,21.6939
1322898992725,21.6715
1322899052725,21.6859
1322899112725,21.6351
1322899172725,21.6394
1322899232736,21.6558
1322899292736,21.6565
1322899352736,21.7112
1322899412736,21.6623
1322899472736,21.6643
1322899532736,21.6749
1322899592736,21.7660
1322899652736,21.7323
1322899712736,21.7556
1322899772736,21.7760
1322899832736,21.7757
1322899892736,21.6959
1322899952736,21.7471
1322900012736,21.7001
1322900072736,21.6467
1322900132736,21.7307
1322900192736,21.6654
1322900252736,21.6856
1322900312736,21.7163
1322900372736,21.6616
1322900432736,21.6820
1322900492736,21.6454
1322900552736,21.6524
1322900612736,21.7009
1322900672736,21.7035
1322900732736,21.6860
1322900792736,21.6826
1322900852736,21.6341
1322900912736,21.6960
1322900972736,21.7575
1322901032736,21.7314
1322901092736,21.7253
1322901152736,21.6624
1322901212736,21.6982
1322901272736,21.7643
1322901332736,21.6822
1322901392736,21.7057
1322901452736,21.7153
1322901512736,21.6598
1322901572736,21.6749
1322901632736,21.7726
1322901692736,21.8258
1322901752736,21.8180
1322901812736,21.7397
1322901872736,21.6776
1322901932736,21.7212
1322901992736,21.6576
1322902052736,21.6561
1322902112736,21.6425
1322902172736,21.7304
1322902232736,21.7109
1322902292736,21.7570
1322902352736,21.6603
1322902412736,21.6880
1322902472736,21.6320
1322902532736,21.6600
1322902592736,21.6780
1322902652736,21.6618
1322902712736,21.6316
1322902772736,21.6983
1322902832747,21.6968
1322902892747,21.6905
1322902952747,21.7330
1322903012747,21.7801
1322903072747,21.7204
1322903132747,21.7203
1322903192747,21.6779
1322903252747,21.7102
1322903312747,21.6938
1322903372747,21.7173
1322903432747,21.7457
1322903492747,21.7112
1322903552747,21.7467
1322903612747,21.7345
1322903672747,21.7151
1322903732747,21.7718
1322903792747,21.7188
1322903852747,21.7751
1322903912747,21.7678
1322903972747,21.7153
1322904032747,21.7672
1322904092747,21.7169
1322904152747,21.8298
1322904212747,21.7021
1322904272747,21.7497
1322904332747,21.7055
1322904392747,21.7275
1322904452747,21.7344
1322904512747,21.7960
1322904572747,21.7872
1322904632747,21.7841
1322904692747,21.7572
1322904752747,21.7545
1322904812747,21.7515
1322904872747,21.7951
1322904932747,21.7407
1322904992747,21.7085
1322905052747,21.7926
1322905112747,21.8266
1322905172747,21.7761
1322905232747,21.7738
1322905292747,21.7072
1322905352747,21.7877
1322905412747,21.8004
1322905472747,21.7748
1322905532747,21.7898
1322905592747,21.7822
1322905652747,21.7632
1322905712747,21.8037
1322905772747,21.7982
1322905832747,21.8288
1322905892747,21.8800
1322905952747,21.8217
1322906012747,21.8274
1322906072747,21.7773
1322906132747,21.8348
1322906192747,21.7842
1322906252747,21.7893
1322906312747,21.7663
1322906372747,21.7182
1322906432759,21.7544
1322906492759,21.7545
1322906552759,21.7589
1322906612759,21.7662
1322906672759,21.7671
1322906732759,21.7631
1322906792759,21.7676
1322906852759,21.7867
1322906912759,21.7931
1322906972759,21.8379
1322907032759,21.8126
1322907092759,21.8234
1322907152759,21.8532
1322907212759,21.8187
1322907272759,21.7903
1322907332759,21.8384
1322907392759,21.8168
1322907452759,21.8224
1322907512759,21.8602
1322907572759,21.8903
1322907632759,21.8428
1322907692759,21.8241
1322907752759,21.8298
1322907812759,21.8257
1322907872759,21.8335
1322907932759,21.8846
1322907992759,21.8585
1322908052759,21.8999
1322908112759,21.8367
1322908172759,21.8093
1322908232759,21.7931
1322908292759,21.7776
1322908352759,21.8665
1322908412759,21.7853
1322908472759,21.7347
1322908532759,21.7382
1322908592759,21.7887
1322908652759,21.8226
1322908712759,21.8468
1322908772759,21.8067
1322908832759,21.7931
1322908892759,21.8223
1322908952759,21.8295
1322909012759,21.8175
1322909072759,21.8176
1322909132759,21.8013
1322909192759,21.8726
1322909252759,21.9020
1322909312759,21.9938
1322909372759,21.9679
1322909432759,21.9174
1322909492759,22.0305
1322909552759,22.1400
1322909612759,22.1502
1322909672759,22.0554
1322909732759,22.0569
1322909792759,22.0744
1322909852759,22.0908
1322909912759,22.0300
1322909972759,22.0162
1322910032771,22.0843
1322910092771,21.9819
1322910152771,22.0157
1322910212771,22.0205
1322910272771,21.9907
1322910332771,21.9809
1322910392771,22.0054
1322910452771,21.9712
1322910512771,21.9550
1322910572771,21.9593
1322910632771,21.9340
1322910692771,22.0015
1322911232771,22.2023
1322911292771,22.1736
1322911352771,22.1662
1322911412771,22.1726
1322911472771,22.1302
1322911532771,22.1828
1322911592771,22.1593
1322911652771,22.1898
1322911712771,22.0950
1322911772771,22.1074
1322911832771,22.0911
1322911892771,22.1025
1322911952771,22.1061
1322912012771,22.1133
1322912072771,22.1096
1322912132771,22.0654
1322912192771,22.0382
1322912252771,22.0342
1322912312771,22.0809
1322912372771,22.0571
1322912432771,22.1034
1322912492771,22.0824
1322912552771,22.0186
1322912612771,22.0417
1322912672771,22.0151
1322912732771,22.0768
1322912792771,21.9944
1322912852771,21.9889
1322912912771,21.9872
1322912972771,21.9764
1322913032771,21.9277
1322913092771,21.8969
1322913152771,21.9161
1322913212771,21.9320
1322913272771,21.8844
1322913332771,21.9165
1322913392771,21.9216
1322913452771,21.9359
1322913512771,21.9083
1322913572771,21.9550
1322913632783,21.8742
1322913692783,21.8991
1322913752783,21.8899
1322913812783,21.9004
1322913872783,21.9189
1322913932783,21.9216
1322913992783,21.8692
1322914052783,21.8564
1322914112783,21.8957
1322914172783,21.8710
1322914232783,21.8685
1322914292783,21.8804
1322914352783,21.8410
1322914412783,21.8340
1322914472783,21.8266
1322914532783,21.8699
1322914592783,21.8227
1322914652783,21.8352
1322914712783,21.8342
1322914772783,21.8017
1322914832783,21.8417
1322914892783,21.8265
1322914952783,21.8320
1322915012783,21.8136
1322915072783,21.8771
1322915132783,21.7894
1322915192783,21.8469
1322915252783,21.8155
1322915312783,21.8561
1322915372783,21.7992
1322915432783,21.7477
1322915492783,21.8031
1322915552783,21.8518
1322915612783,21.8149
1322915672783,21.7933
1322915732783,21.8102
1322915792783,21.7419
1322915852783,21.7576
1322915912783,21.8463
1322915972783,21.8148
1322916032783,21.8054
1322916092783,21.8714
1322916152783,21.8105
1322916212783,21.8305
1322916272783,21.8355
1322916332783,21.8191
1322916392783,21.7928
1322916452783,21.7691
1322916512783,21.8599
1322916572783,21.8590
1322916632783,21.7948
1322916692783,21.8093
1322916752783,21.8373
1322916812783,21.7666
1322916872783,21.7628
1322916932783,21.7631
1322916992783,21.8138
1322917052783,21.7732
1322917112783,21.7923
1322917172783,21.7764
1322917232795,21.8112
1322917292795,21.8044
1322917352795,21.8194
1322917412795,21.8138
1322917472795,21.7777
1322917532795,21.7986
1322917592795,21.7123
1322917652795,21.7707
1322917712795,21.7886
1322917772795,21.7454
1322917832795,21.7770
1322917892795,21.7869
1322917952795,21.8266
1322918012795,21.8833
1322918072795,21.8635
1322918132795,21.8621
1322918192795,21.9115
1322918252795,21.9011
1322918312795,21.8381
1322918372795,21.8270
1322918432795,21.8313
1322918492795,21.8614
1322918552795,21.8058
1322918612795,21.8217
1322918672795,21.8175
1322918732795,21.8953
1322918792795,21.8689
1322918852795,21.8421
1322918912795,21.8401
1322918972795,21.8536
1322919032795,21.8360
1322919092795,21.8211
1322919152795,21.8295
1322919212795,21.8045
1322919272795,21.8880
1322919332795,21.8224
1322919392795,21.8616
1322919452795,21.8768
1322919512795,21.8611
1322919572795,21.8679
1322919632795,21.8381
1322919692795,21.8846
1322919752795,21.8890
1322919812795,21.8672
1322919872795,21.8504
1322919932795,21.8548
1322919992795,21.8934
1322920052795,21.8479
1322920112795,21.9158
1322920172795,21.8682
1322920232795,21.9392
1322920292795,21.9045
1322920352795,21.8905
1322920412795,21.9500
1322920472795,21.8948
1322920532795,21.9007
1322920592795,21.9095
1322920652795,21.9408
1322920712795,21.8904
1322920772795,21.9143
1322920832807,21.9530
1322920892807,21.9166
1322920952807,21.9718
1322921012807,21.9669
1322921072807,21.9393
1322921132807,21.9759
1322921192807,21.9715
1322921252807,21.9889
1322921312807,22.0120
1322921372807,21.9620
1322921432807,22.0076
1322921492807,21.9631
1322921552807,21.9812
1322921612807,21.9826
1322921672807,21.9451
1322921732807,21.9442
1322921792807,21.8787
1322921852807,21.9444
1322921912807,21.9716
1322921972807,21.9889
1322922032807,21.9924
1322922092807,21.9221
1322922152807,21.9179
1322922212807,21.9818
1322922272807,21.9414
1322922332807,21.9102
1322922392807,21.9666
1322922452807,21.9993
1322922512807,21.9272
1322922572807,21.9695
1322922632807,21.9703
1322922692807,22.0108
1322922752807,21.9543
1322922812807,21.9531
1322922872807,21.9624
1322922932807,21.9928
1322922992807,21.9459
1322923052807,21.9578
1322923112807,21.9602
1322923172807,21.9311
1322923232807,21.9926
1322923292807,22.0193
1322923352807,21.9220
1322923412807,21.9507
1322923472807,21.9404
1322923532807,21.9571
1322923592807,21.9509
1322923652807,21.9261
1322923712807,22.0368
1322923772807,21.9916
1322923832807,21.9811
1322923892807,21.9646
1322923952807,22.0012
1322924012807,21.8974
1322924072807,21.9440
1322924132807,22.0291
1322924192807,21.9444
1322924252807,21.9821
1322924312807,21.9794
1322924372807,21.9758
1322924432819,22.0000
1322924492819,22.0178
1322924552819,21.9920
1322924612819,21.9440
1322924672819,21.9696
1322924732819,22.0124
1322924792819,21.9772
1322924852819,21.9795
1322924912819,22.0038
1322924972819,21.9805
1322925032819,22.0180
1322925092819,21.9557
1322925152819,21.9699
1322925212819,21.9940
1322925272819,22.0143
1322925332819,22.0767
1322925392819,22.0531
1322925452819,22.0961
1322925512819,22.1383
1322925572819,22.1123
1322925632819,22.0956
1322925692819,22.0959
1322925752819,22.0409
1322925812819,22.0522
1322925872819,21.9898
1322925932819,22.0713
1322925992819,22.0502
1322926052819,22.0983
1322926112819,22.0315
1322926172819,22.0690
1322926232819,22.0801
1322926292819,22.0052
1322926352819,22.0151
1322926412819,22.0410
1322926472819,22.0337
1322926532819,22.0081
1322926592819,22.0985
1322926652819,22.0579
1322926712819,22.0987
1322926772819,22.1201
1322926832819,22.1004
1322926892819,22.0831
1322926952819,22.0313
1322927012819,22.0486
1322927072819,22.0960
1322927132819,22.1401
1322927192819,22.0665
1322927252819,22.0511
1322927312819,22.1128
1322927372819,22.1094
1322927432819,22.1775
1322927492819,22.1004
1322927552819,22.0299
1322927612819,22.0533
1322927672819,22.0566
1322927732819,22.1184
1322927792819,22.0777
1322927852819,22.1315
1322927912819,22.1321
1322927972819,22.0853
1322928032831,22.0740
1322928092831,22.1129
1322928152831,22.0345
1322928212831,22.0535
1322928272831,22.0871
1322928332831,22.0293
1322928392831,22.0893
1322928452831,22.1139
1322928512831,22.0489
1322928572831,22.0373
1322928632831,22.0691
1322928692831,21.9837
1322928752831,22.0535
1322928812831,22.0963
1322928872831,22.0263
1322928932831,22.0868
1322928992831,22.1032
1322929052831,22.0827
1322929112831,22.0437
1322929172831,22.0282
1322929232831,22.0129
1322929292831,22.1344
1322929352831,22.0898
1322929412831,22.1246
1322929472831,22.0682
1322929532831,22.1123
1322929592831,22.0941
1322929652831,22.1175
1322929712831,22.0845
1322929772831,22.0478
1322929832831,22.0900
1322929892831,22.0523
1322929952831,22.1088
1322930012831,22.1215
1322930072831,22.1303
1322930132831,22.0918
1322930192831,22.1586
1322930252831,22.1460
1322930312831,22.1107
1322930372831,22.1600
1322930432831,22.1848
1322930492831,22.1972
1322930552831,22.1704
1322930612831,22.2089
1322930672831,22.1393
1322930732831,22.1009
1322930792831,22.0944
1322930852831,22.1101
1322930912831,22.0751
1322930972831,22.1643
1322931032831,22.2536
1322931092831,22.2559
1322931152831,22.1916
1322931212831,22.1663
1322931272831,22.2207
1322931332831,22.1996
1322931392831,22.1666
1322931452831,22.1787
1322931512831,22.1897
1322931572831,22.1717
1322931632843,22.1838
1322931692843,22.1881
1322931752843,22.1294
1322931812843,22.1195
1322931872843,22.1010
1322931932843,22.1831
1322931992843,22.1472
1322932052843,22.0588
1322932112843,22.1385
1322932172843,22.1036
1322932232843,22.0725
1322932292843,22.0539
1322932352843,22.0894
1322932412843,22.1654
1322932472843,22.1440
1322932532843,22.1338
1322932592843,22.1228
1322932652843,22.1186
1322932712843,22.0613
1322932772843,22.1291
1322932832843,22.0979
1322932892843,22.1084
1322932952843,22.0971
1322933012843,22.0917
1322933072843,22.0749
1322933132843,22.0247
1322933192843,22.1052
1322933252843,22.0591
1322933312843,22.0803
1322933372843,22.1065
1322933432843,22.0868
1322933492843,22.1036
1322933552843,22.0836
1322933612843,22.1000
1322933672843,22.0882
1322933732843,22.0960
1322933792843,22.1157
1322933852843,22.1220
1322933912843,22.1344
1322933972843,22.1228
1322934032843,22.1332
1322934092843,22.0786
1322934152843,22.0574
1322934212843,22.0933
1322934272843,22.0991
1322934332843,22.0906
1322934392843,22.1069
1322934452843,22.0833
1322934512843,22.0626
1322934572843,22.0443
1322934632843,22.0528
1322934692843,22.0925
1322934752843,22.1025
1322934812843,22.1425
1322934872843,22.1502
1322934932843,22.0818
1322934992843,22.0736
1322935052843,22.0642
1322935112843,22.1422
1322935172843,22.0801
1322935232855,22.0881
1322935292855,22.1513
1322935352855,22.0954
1322935412855,22.1920
1322935472855,22.1060
1322935532855,22.1406
1322935592855,22.1681
1322935652855,22.1731
1322935712855,22.2157
1322935772855,22.1991
1322935832855,22.2825
1322935892855,22.2086
1322935952855,22.1770
1322936012855,22.2237
1322936072855,22.2281
1322936132855,22.1917
1322936192855,22.2318
1322936252855,22.3482